Regional Weather Roundup
Issued by NWS

Home | Current Version | Previous Version | Text Only | Print | Product List | Glossary Off
Versions: 1 2 3 4 5 6 7 8 9 10 11 12 13 14 15 16 17 18 19 20 21 22 23 24 25 26 27 28 29 30 31 32 33 34 35 36 37 38 39 40 41 42 43 44 45 46 47 48 49 50

000
ASUS45 KCYS 230710
RWRWY

WYOMING REGIONAL WEATHER ROUNDUP
NATIONAL WEATHER SERVICE CHEYENNE WY
100 AM MDT SAT AUG 23 2014

NOTE:  "FAIR" INDICATES FEW OR NO CLOUDS BELOW 12,000 FEET
WITH NO SIGNIFICANT WEATHER AND/OR OBSTRUCTIONS TO VISIBILITY.

WYZ001-230800-
YELLOWSTONE NATIONAL PARK

CITY           SKY/WX    TMP DP  RH WIND       PRES   REMARKS
LK YELLOWSTONE   N/A     44  41  89 W3        30.14F
W YELLOWSTONE  NOT AVBL

$$
WYZ002>013-054>058-071-098>099-230800-
NORTHERN WYOMING

CITY           SKY/WX    TMP DP  RH WIND       PRES   REMARKS
JACKSON        CLOUDY    45  43  93 SE5       30.10R
CODY           CLOUDY    54  54 100 N6        30.02F
GREYBULL       LGT RAIN  60  58  92 NW5       29.95F
WORLAND        LGT RAIN  59  56  89 N6        29.97F
SHERIDAN       CLOUDY    59  57  93 CALM      29.97F
BUFFALO        CLOUDY    58  56  93 CALM      30.02F
GILLETTE       RAIN      60  58  92 SE9       30.00R
HULETT         CLOUDY    63  61  94 MISG      30.02
NEWCASTLE      PTSUNNY   68  54  60 MISG      29.98

$$
WYZ014>020-022>026-101>103-230800-
CENTRAL WYOMING

CITY           SKY/WX    TMP DP  RH WIND       PRES   REMARKS
BIG PINEY      CLOUDY    46  44  93 W5        30.13F
PINEDALE       CLOUDY    45  45 100 SW10      30.12R
DUBOIS         DRIZZLE   45  43  93 W3        30.09F
LANDER         LGT RAIN  54  53  97 SW3       30.03S
RIVERTON       LGT RAIN  54  51  90 W7        30.03F
CASPER         CLOUDY    58  55  90 NE7       29.99F
DOUGLAS        CLOUDY    63  55  75 S6        29.99S

$$
WYZ021-027>030-104>119-230800-
SOUTHERN WYOMING

CITY           SKY/WX    TMP DP  RH WIND       PRES   REMARKS
EVANSTON       LGT RAIN  46  43  89 NW14G30   30.15R FOG
KEMMERER       CLOUDY    45  43  93 SW7       30.16R
FORT BRIDGER   CLOUDY    48  48 100 SE9       30.15F
ROCK SPRINGS   LGT RAIN  45  44  97 SW7       30.13F
DIXON          LGT RAIN  51  47  86 N17G24    30.13R
RAWLINS        LGT RAIN  52  45  77 W20G29    30.08R
SARATOGA       CLOUDY    55  50  82 MISG      30.08F
LARAMIE        MOCLDY    54  51  90 S14       30.08F
CHEYENNE       CLOUDY    57  55  93 SW9       30.05F
TORRINGTON     CLOUDY    61  60  97 E6        29.97F
PINE BLUFFS    PTSUNNY   57  55  94 SE3       30.04S

$$


USA.gov is the U.S. government's official web portal to all federal, state and local government web resources and services.